Lid_Strength_Index
4 7 7 8 13 14 15 13 10 10 10 9 8 7 8 6 8 11 2 1 1 1 -0 -0 -1 -1 -1 -1 -1 -1 -1 -1 -1 -1 -1 -1 -1 -1 -1 -1 -1 -1 -1 -1 -1 -2 -2 -2 -2
4 6 7 11 15 16 14 11 10 9 9 9 8 7 6 7 4 4 3 1 0 0 -0 -0 -1 -1 -1 -1 -1 -1 -1 -1 -1 -1 -1 -1 -1 -1 -1 -1 -1 -1 -2 -2 -2 -2 -2 -2 -2
6 5 10 13 16 16 14 12 10 8 8 8 8 5 5 6 4 3 2 1 0 0 -0 -0 -1 -1 -1 -1 -1 -1 -1 -1 -1 -1 -1 -1 -1 -1 -1 -1 -2 -2 -2 -2 -2 -2 -2 -1 -1
7 8 10 13 15 13 12 11 9 7 7 7 7 7 4 3 3 2 1 0 1 0 -0 -0 -0 -1 -1 -1 -1 -1 -1 -1 -1 -1 -1 -1 -1 -1 -1 -1 -2 -2 -2 -2 -2 -2 -2 -1 -1
6 9 12 15 14 12 10 9 10 8 7 7 5 7 6 6 2 1 1 1 1 1 0 -0 -0 -1 -1 -1 -1 -1 -1 -1 -1 -1 -1 -1 -1 -1 -1 -1 -2 -2 -2 -2 -2 -2 -2 -2 -2
8 9 13 14 12 10 10 9 9 9 7 7 7 6 6 4 5 6 1 1 0 1 0 -0 -0 -0 -1 -1 -1 -1 -1 -1 -1 -1 -1 -1 -1 -1 -1 -2 -2 -2 -2 -2 -2 -2 -2 -2 -2
9 11 13 12 11 10 9 8 9 8 8 7 6 7 6 6 5 6 2 1 1 0 0 0 -0 -0 -1 -1 -1 -1 -1 -1 -1 -1 -1 -1 -1 -1 -1 -2 -2 -2 -2 -2 -2 -2 -2 -2 -2
8 10 12 11 11 11 7 8 8 8 7 4 4 8 8 5 5 5 5 1 1 1 0 0 0 -0 -0 -0 -1 -1 -1 -1 -0 -1 -1 -1 -1 -1 -1 -1 -2 -2 -2 -2 -2 -2 -2 -2 -2
7 13 14 12 10 9 6 9 7 6 6 5 4 5 4 5 5 6 7 2 2 1 1 0 0 0 0 -0 -0 -1 -1 -1 -1 -1 -1 -0 0 0 -1 -1 -2 -2 -2 -2 -2 -2 -2 -2 -2
10 13 12 9 9 9 7 8 8 7 7 7 6 4 4 5 6 6 7 6 3 2 1 1 0 0 0 -0 -0 -0 -0 -0 -0 -0 -0 0 1 1 -0 -1 -2 -2 -2 -2 -2 -2 -2 -1 0
11 13 10 9 8 7 7 7 8 7 8 6 6 5 4 5 5 6 6 7 4 2 1 1 1 0 0 0 -0 0 0 0 -0 0 0 1 0 0 0 0 0 0 -1 0 -1 -0 0 0 0
13 10 9 8 7 7 8 6 8 8 7 5 4 4 4 5 6 5 5 5 4 3 2 1 1 1 1 0 0 0 0 1 1 0 0 1 1 0 0 0 0 0 0 0 1 0 0 0 0
13 11 9 8 8 8 7 7 8 8 7 6 5 4 4 5 5 5 5 5 3 2 3 3 1 1 1 0 0 0 0 0 0 1 0 -0 0 1 0 1 1 1 1 1 2 2 1 1 0
10 10 10 10 10 10 9 9 9 7 7 7 7 6 4 5 5 5 5 5 3 3 4 3 2 1 1 1 1 0 0 0 0 -0 -0 -0 0 0 0 1 1 2 2 1 2 2 2 2 1
9 12 10 10 9 10 9 10 10 8 6 7 8 7 6 4 4 5 4 5 4 3 3 2 1 1 1 1 0 0 0 0 0 0 -0 -0 0 0 0 0 1 1 1 1 2 2 2 2 1
11 13 15 11 9 8 9 12 9 7 7 7 7 7 6 5 5 5 4 5 3 3 3 4 1 1 1 1 1 0 0 1 0 0 -0 -0 -0 0 0 1 1 1 1 2 2 2 3 3 2
13 15 14 12 9 9 9 11 8 7 7 8 8 7 6 6 5 5 5 4 3 3 3 4 6 3 1 2 1 1 1 1 1 0 0 -0 -0 -0 0 0 0 1 2 2 2 3 3 3 2
15 15 13 13 10 10 11 11 9 8 8 8 8 8 7 7 6 5 3 2 3 3 3 2 4 5 3 1 1 1 2 1 1 1 0 0 -0 -0 0 0 1 1 2 2 3 3 2 2 2
11 12 13 11 9 11 11 11 10 9 9 9 9 9 8 7 6 3 3 3 3 2 3 2 2 4 4 2 2 2 2 2 1 1 1 1 0 0 0 0 1 2 2 3 3 3 3 2 2
10 12 13 11 9 11 11 11 10 9 9 9 9 8 8 7 6 5 4 4 3 3 3 3 3 2 3 4 4 3 3 2 1 0 0 1 1 0 0 0 1 2 2 3 3 3 3 2 2
11 12 12 12 10 10 11 12 11 9 9 8 8 8 7 7 7 6 4 4 3 3 3 3 3 2 2 2 3 5 5 3 2 2 1 1 1 0 0 1 1 1 2 2 3 3 3 3 2
13 10 10 10 12 16 11 17 13 10 9 9 8 9 8 7 6 6 4 4 3 3 3 3 3 2 2 1 2 4 4 5 4 3 1 1 0 1 1 1 1 2 2 2 3 1 1 2 3
11 9 10 11 13 15 14 16 15 11 11 9 8 7 6 7 6 6 4 3 4 4 4 3 3 3 3 2 2 3 3 3 3 3 4 3 1 0 0 1 1 1 1 2 2 1 1 1 2
8 10 12 13 15 18 16 15 15 13 11 10 8 7 6 7 6 6 4 4 4 4 4 3 3 3 3 2 2 3 3 3 3 3 2 2 1 1 0 0 0 1 1 1 2 1 1 1 1
11 14 18 18 19 18 14 15 13 11 9 8 8 8 7 7 7 5 5 5 5 5 5 3 3 3 3 3 3 3 2 3 3 3 3 2 3 4 3 1 1 1 0 0 1 2 1 1 2
12 13 16 21 21 18 13 17 13 9 8 7 7 7 7 6 7 5 5 4 4 5 5 3 4 4 3 3 3 2 3 3 2 2 2 3 2 2 2 1 1 1 1 1 1 1 2 1 1
12 14 10 14 14 19 17 14 10 9 8 7 8 7 7 7 5 5 5 5 5 5 5 3 3 3 3 3 3 2 3 2 3 3 2 2 1 1 1 1 1 1 1 1 1 1 1 1 1
10 10 15 15 21 22 18 17 15 11 10 8 8 7 7 7 7 6 6 5 5 5 4 4 3 3 2 3 3 3 2 2 2 2 2 2 2 1 1 1 1 1 1 1 1 1 1 1 1
13 13 14 14 16 20 22 18 10 10 9 9 8 7 8 7 6 6 5 5 6 6 6 4 3 2 3 3 4 3 3 3 2 2 2 2 2 1 1 1 1 1 1 1 1 1 1 2 2
10 13 13 17 18 17 17 17 8 8 8 8 7 7 7 6 5 5 5 5 6 5 5 3 3 3 3 3 3 3 4 4 3 3 2 1 2 1 1 1 1 1 1 1 1 2 1 2 2